When you browse on this site, cookies collect data to enhance your experience and personalize the content and advertising you see.
Visit our Privacy Policy to learn more. By continuing to use the site, you agree to this use of cookies and data.
  • In Schweiz
  • Länderverzeichnis
  • Für 7 Tage
  • Wassertemperatur
  • Wetterkarte
  • Widgets
  • user-avatar
    Anmelden

    Stündliche Wetter Kandi

    Heute, 16 Oktober, Mittwoch

    Zeit Temperatur Niederschläge Wind Luftdruck Luftfeuchtigkeit
    00:00 +27°C° 0 mm 2 m/S 737 mmHg 86%
    01:00 +26°C° 0 mm 2 m/S 737 mmHg 87%
    02:00 +26°C° 0 mm 2 m/S 736 mmHg 87%
    03:00 +26°C° 0 mm 2 m/S 736 mmHg 88%
    04:00 +26°C° 0 mm 2 m/S 736 mmHg 88%
    05:00 +25°C° 0 mm 2 m/S 736 mmHg 88%
    06:00 +25°C° 0 mm 2 m/S 737 mmHg 90%
    07:00 +27°C° 0 mm 2 m/S 737 mmHg 84%
    08:00 +29°C° 0 mm 2 m/S 737 mmHg 79%
    09:00 +30°C° 0 mm 2 m/S 738 mmHg 73%
    10:00 +32°C° 0 mm 2 m/S 737 mmHg 65%
    11:00 +34°C° 0 mm 1 m/S 737 mmHg 57%
    12:00 +36°C° 0 mm 1 m/S 737 mmHg 49%
    13:00 +36°C° 0 mm 1 m/S 736 mmHg 48%
    14:00 +36°C° 0 mm 1 m/S 735 mmHg 48%
    15:00 +35°C° 0 mm 1 m/S 735 mmHg 47%
    16:00 +34°C° 0 mm 1 m/S 735 mmHg 53%
    17:00 +32°C° 0 mm 1 m/S 735 mmHg 60%
    18:00 +30°C° 0 mm 2 m/S 735 mmHg 67%
    19:00 +30°C° 0 mm 1 m/S 736 mmHg 69%
    20:00 +29°C° 0 mm 1 m/S 736 mmHg 71%
    21:00 +28°C° 0 mm 1 m/S 737 mmHg 73%
    22:00 +28°C° 0 mm 1 m/S 737 mmHg 75%
    23:00 +28°C° 0 mm 1 m/S 736 mmHg 77%

    Morgen, 17 Oktober, Donnerstag

    Zeit Temperatur Niederschläge Wind Luftdruck Luftfeuchtigkeit
    00:00 +27°C° 0 mm 1 m/S 736 mmHg 79%
    01:00 +27°C° 0 mm 1 m/S 736 mmHg 81%
    02:00 +26°C° 0 mm 1 m/S 736 mmHg 83%
    03:00 +26°C° 0 mm 1 m/S 735 mmHg 85%
    04:00 +26°C° 0 mm 1 m/S 736 mmHg 85%
    05:00 +26°C° 0 mm 1 m/S 736 mmHg 86%
    06:00 +26°C° 0 mm 1 m/S 736 mmHg 87%
    07:00 +27°C° 0 mm 1 m/S 737 mmHg 80%
    08:00 +29°C° 0 mm 1 m/S 737 mmHg 73%
    09:00 +31°C° 0 mm 1 m/S 737 mmHg 66%
    10:00 +33°C° 0 mm 1 m/S 737 mmHg 60%
    11:00 +35°C° 0 mm 1 m/S 737 mmHg 54%
    12:00 +36°C° 0 mm 1 m/S 736 mmHg 48%
    13:00 +36°C° 0 mm 1 m/S 736 mmHg 46%
    14:00 +36°C° 0 mm 1 m/S 735 mmHg 44%
    15:00 +36°C° 0 mm 1 m/S 734 mmHg 42%
    16:00 +35°C° 0 mm 1 m/S 734 mmHg 49%
    17:00 +33°C° 0 mm 1 m/S 734 mmHg 55%
    18:00 +31°C° 0 mm 1 m/S 734 mmHg 61%
    19:00 +30°C° 0 mm 1 m/S 735 mmHg 65%
    20:00 +30°C° 0 mm 1 m/S 736 mmHg 68%
    21:00 +29°C° 0 mm 1 m/S 736 mmHg 72%
    22:00 +29°C° 0 mm 1 m/S 736 mmHg 72%
    23:00 +28°C° 0 mm 1 m/S 736 mmHg 72%

    übermorgen, 18 Oktober, Freitag

    Zeit Temperatur Niederschläge Wind Luftdruck Luftfeuchtigkeit
    00:00 +28°C° 0 mm 1 m/S 736 mmHg 73%
    01:00 +28°C° 0 mm 2 m/S 735 mmHg 74%
    02:00 +27°C° 0 mm 2 m/S 735 mmHg 75%
    03:00 +27°C° 0 mm 2 m/S 735 mmHg 76%
    04:00 +27°C° 0 mm 2 m/S 735 mmHg 78%
    05:00 +26°C° 0 mm 1 m/S 735 mmHg 80%
    06:00 +26°C° 0 mm 1 m/S 736 mmHg 82%
    07:00 +28°C° 0 mm 1 m/S 736 mmHg 77%
    08:00 +29°C° 0 mm 1 m/S 736 mmHg 71%
    09:00 +31°C° 0 mm 2 m/S 737 mmHg 65%
    10:00 +34°C° 0 mm 2 m/S 736 mmHg 61%
    11:00 +35°C° 0 mm 2 m/S 735 mmHg 56%
    12:00 +36°C° 0 mm 2 m/S 735 mmHg 51%
    13:00 +37°C° 0 mm 2 m/S 734 mmHg 50%
    14:00 +37°C° 0 mm 2 m/S 734 mmHg 48%
    15:00 +37°C° 0 mm 2 m/S 733 mmHg 47%
    16:00 +35°C° 0.3 mm 2 m/S 734 mmHg 55%
    17:00 +32°C° 0.3 mm 2 m/S 734 mmHg 63%
    18:00 +30°C° 0.3 mm 2 m/S 734 mmHg 72%
    19:00 +29°C° 0.1 mm 2 m/S 734 mmHg 74%
    20:00 +29°C° 0.1 mm 2 m/S 735 mmHg 77%
    21:00 +28°C° 0.1 mm 2 m/S 735 mmHg 80%
    22:00 +28°C° 0 mm 2 m/S 735 mmHg 81%
    23:00 +27°C° 0 mm 2 m/S 735 mmHg 82%

    19 Oktober, Samstag

    Zeit Temperatur Niederschläge Wind Luftdruck Luftfeuchtigkeit
    00:00 +27°C° 0 mm 1 m/S 735 mmHg 83%
    01:00 +27°C° 0 mm 2 m/S 735 mmHg 84%
    02:00 +26°C° 0 mm 2 m/S 734 mmHg 84%
    03:00 +26°C° 0 mm 2 m/S 734 mmHg 85%
    04:00 +26°C° 0 mm 2 m/S 734 mmHg 85%
    05:00 +26°C° 0 mm 2 m/S 735 mmHg 86%
    06:00 +26°C° 0 mm 1 m/S 735 mmHg 87%
    07:00 +27°C° 0 mm 1 m/S 735 mmHg 80%
    08:00 +29°C° 0 mm 2 m/S 736 mmHg 73%
    09:00 +31°C° 0 mm 2 m/S 736 mmHg 67%
    10:00 +32°C° 0 mm 2 m/S 736 mmHg 61%
    11:00 +34°C° 0 mm 1 m/S 735 mmHg 56%
    12:00 +35°C° 0 mm 1 m/S 735 mmHg 51%
    13:00 +35°C° 0 mm 1 m/S 734 mmHg 50%
    14:00 +35°C° 0 mm 1 m/S 734 mmHg 49%
    15:00 +35°C° 0 mm 1 m/S 734 mmHg 48%
    16:00 +34°C° 0.1 mm 1 m/S 734 mmHg 55%
    17:00 +32°C° 0.1 mm 1 m/S 734 mmHg 62%
    18:00 +30°C° 0.1 mm 2 m/S 734 mmHg 68%
    19:00 +29°C° 0.5 mm 2 m/S 735 mmHg 73%
    20:00 +28°C° 0.5 mm 2 m/S 735 mmHg 78%
    21:00 +27°C° 0.5 mm 2 m/S 736 mmHg 83%
    22:00 +27°C° 1.2 mm 3 m/S 736 mmHg 84%
    23:00 +26°C° 1.2 mm 3 m/S 736 mmHg 85%

    20 Oktober, Sonntag

    Zeit Temperatur Niederschläge Wind Luftdruck Luftfeuchtigkeit
    00:00 +26°C° 1.2 mm 4 m/S 737 mmHg 87%
    01:00 +25°C° 0.1 mm 4 m/S 736 mmHg 88%
    02:00 +25°C° 0.1 mm 3 m/S 736 mmHg 89%
    03:00 +25°C° 0.1 mm 3 m/S 736 mmHg 90%
    04:00 +25°C° 0.3 mm 2 m/S 736 mmHg 91%
    05:00 +25°C° 0.3 mm 1 m/S 737 mmHg 92%
    06:00 +25°C° 0.3 mm 1 m/S 737 mmHg 93%
    07:00 +25°C° 0.1 mm 1 m/S 737 mmHg 91%
    08:00 +25°C° 0.1 mm 1 m/S 737 mmHg 90%
    09:00 +25°C° 0.1 mm 2 m/S 738 mmHg 88%
    10:00 +26°C° 0 mm 2 m/S 737 mmHg 84%
    11:00 +27°C° 0 mm 1 m/S 737 mmHg 80%
    12:00 +28°C° 0 mm 1 m/S 736 mmHg 76%
    13:00 +29°C° 0 mm 1 m/S 736 mmHg 75%
    14:00 +29°C° 0 mm 1 m/S 735 mmHg 73%
    15:00 +30°C° 0 mm 1 m/S 735 mmHg 72%
    16:00 +29°C° 0.1 mm 1 m/S 735 mmHg 76%
    17:00 +26°C° 0.1 mm 0 m/S 735 mmHg 79%
    18:00 +25°C° 0.1 mm 0 m/S 736 mmHg 83%
    19:00 +25°C° 0.5 mm 0 m/S 736 mmHg 84%
    20:00 +24°C° 0.5 mm 0 m/S 737 mmHg 86%
    21:00 +24°C° 0.5 mm 0 m/S 737 mmHg 88%
    22:00 +24°C° 1 mm 0 m/S 737 mmHg 90%
    23:00 +23°C° 1 mm 0 m/S 737 mmHg 92%

    21 Oktober, Montag

    Zeit Temperatur Niederschläge Wind Luftdruck Luftfeuchtigkeit
    00:00 +23°C° 1 mm 0 m/S 737 mmHg 94%
    01:00 +23°C° 1 mm 0 m/S 737 mmHg 94%
    02:00 +23°C° 1 mm 0 m/S 737 mmHg 95%
    03:00 +25°C° 1 mm 1 m/S 737 mmHg 95%
    04:00 +25°C° 0.2 mm 1 m/S 737 mmHg 95%
    05:00 +23°C° 0.2 mm 0 m/S 737 mmHg 95%
    06:00 +23°C° 0.2 mm 0 m/S 737 mmHg 95%
    07:00 +26°C° 0 mm 1 m/S 737 mmHg 90%
    08:00 +27°C° 0 mm 1 m/S 738 mmHg 85%
    09:00 +29°C° 0 mm 2 m/S 738 mmHg 80%
    10:00 +30°C° 0 mm 2 m/S 737 mmHg 73%
    11:00 +32°C° 0 mm 2 m/S 737 mmHg 65%
    12:00 +34°C° 0 mm 2 m/S 736 mmHg 58%
    13:00 +34°C° 0 mm 2 m/S 735 mmHg 58%
    14:00 +34°C° 0 mm 2 m/S 735 mmHg 58%
    15:00 +34°C° 0 mm 2 m/S 734 mmHg 58%
    16:00 +32°C° 0 mm 1 m/S 734 mmHg 63%
    17:00 +31°C° 0 mm 1 m/S 735 mmHg 68%
    18:00 +29°C° 0 mm 1 m/S 735 mmHg 73%
    19:00 +29°C° 0.3 mm 1 m/S 735 mmHg 76%
    20:00 +28°C° 0.3 mm 1 m/S 736 mmHg 79%
    21:00 +27°C° 0.3 mm 1 m/S 736 mmHg 82%
    22:00 +27°C° 0.4 mm 1 m/S 736 mmHg 84%
    23:00 +27°C° 0.4 mm 1 m/S 736 mmHg 86%
    Mehr zeigen